User: anonymous   Login
Location: Unspecified
(0.0000°N, 0.0000°E)
Time: 10:26:40
(UTC+01:00)
Language:

YAOGAN 1 - Orbit

View from above orbital plane
View from above orbital plane
View from above satellite
View from above satellite

Ground track
Ground track

The orbit data is extracted from the following two-line orbital elements,

1 29092U 06015A   17053.54599053  .00000156  00000-0  25974-4 0  9993
2 29092  98.0056  64.7824 0001416  92.2825 267.8550 14.82767811585379
Epoch (UTC): 22 February 2017 13:06:13
Eccentricity: 0.0001416
inclination: 98.0056°
perigee height: 619 km
apogee height: 621 km
right ascension of ascending node: 64.7824°
argument of perigee: 92.2825°
revolutions per day: 14.82767811
mean anomaly at epoch: 267.8550°
orbit number at epoch: 58537

The dashed part of the orbit path shows where the satellite is in the earth's shadow,  

DLR